User: anonymous   Login
Location: Unspecified
(0.0000°N, 0.0000°E)
Time: 19:14:31
(UTC+00:00)
Language:

HO-68 - Orbit

View from above orbital plane
View from above orbital plane
View from above satellite
View from above satellite

Ground track
Ground track

The orbit data is extracted from the following two-line orbital elements,

1 36122U 09072B   19340.74609389 -.00000054  00000-0 -29936-4 0  9999
2 36122 100.0804 335.1302 0007035 313.8559  46.1959 13.16352062479389
Epoch (UTC): 06 December 2019 17:54:22
Eccentricity: 0.0007035
inclination: 100.0804°
perigee height: 1193 km
apogee height: 1204 km
right ascension of ascending node: 335.1302°
argument of perigee: 313.8559°
revolutions per day: 13.16352062
mean anomaly at epoch: 46.1959°
orbit number at epoch: 47938

The dashed part of the orbit path shows where the satellite is in the earth's shadow,  

DLR